[[{"header":{"parameterUnit":"m.s-1","parameterCategory":1,"la1":30.2991,"la2":30.254,"lo1":-89.0895,"lo2":-89.0444,"dy":0.0017,"dx":0.0017,"nx":28,"ny":28,"refTime":"2025-11-25T03:00:00:Z","depth":0,"parameterNumber":2,"parameterNumberName":"U-component_of_WINDS"},"data":[0,0,0,0,0,0,0,0,0,0,0,0,0,0,0,0,0,0,0,0,0,0,0,0,0,0,0,0,0,0,0,0,0,0,0,0,0,0,0,0,0,0,0,0,0,0,0,0,0,0,0,0,0,0,0,0,0,0,1.3103,1.3102,0,1.2959,1.2957,1.2955,1.2861,1.2861,1.286,1.2859,1.271,1.2707,1.2703,0,0,0,0,0,0,0,0,0,0,0,0,0,1.3297,1.3294,1.3103,1.3102,1.31,1.2959,1.2957,1.2955,1.2861,1.2861,1.286,1.2859,1.2711,1.2707,1.2703,0,0,0,0,0,0,0,0,0,0,0,0,0,1.3189,1.3293,1.3104,1.3036,1.3028,1.2959,1.2957,1.2955,1.2861,1.2861,1.286,1.2859,1.2712,1.2707,1.2702,1.2689,0,0,1.2687,1.2684,0,0,0,0,0,0,0,0,1.3195,1.3182,1.3048,1.3041,1.3032,1.2927,1.297,1.2865,1.2862,1.2925,1.2859,1.2858,1.2783,1.2772,1.2747,1.2682,1.2675,1.2686,1.2683,1.2681,1.2679,0,0,0,0,0,0,0,1.3202,1.3187,1.3046,1.3046,1.3036,1.3012,1.2996,1.295,1.2861,1.2919,1.2912,1.2896,1.2778,1.2752,1.2742,1.2673,1.2686,1.2682,1.2679,1.2677,1.259,1.259,0,0,0,0,0,0,1.3221,1.3194,1.3051,1.3042,1.3113,1.301,1.2991,1.2962,1.2861,1.2845,1.2897,1.2892,1.2761,1.2748,1.2737,1.2714,1.2681,1.2676,1.2673,1.2589,1.259,1.2591,0,0,0,0,0,0,1.3225,1.3209,1.3056,1.3116,1.3095,1.3007,1.2975,1.2959,1.2933,1.2844,1.2828,1.2887,1.276,1.2744,1.2701,1.2708,1.2674,1.2669,1.2588,1.2589,1.259,1.2669,0,0,0,0,0,0,1.3231,1.3211,1.3205,1.3116,1.3092,1.3024,1.2975,1.2957,1.2924,1.2917,1.283,1.2815,1.2758,1.271,1.2696,1.27,1.2665,1.2587,1.2588,1.259,1.2666,1.2673,1.2679,0,0,0,0,0,1.3239,1.3233,1.3205,1.3189,1.3083,1.3025,1.3011,1.2946,1.2925,1.2918,1.2862,1.2817,1.2709,1.2706,1.269,1.2693,1.2586,1.2588,1.259,1.2663,1.2672,1.2679,0,0,0,0,0,0,1.3324,1.322,1.3188,1.3154,1.3099,1.3009,1.2998,1.2957,1.2906,1.2901,1.2823,1.2804,1.2769,1.2726,1.2725,1.2674,1.2643,1.2641,1.2704,1.2711,1.2718,1.2729,1.2661,0,0,0,0,0,1.3339,1.3301,1.3212,1.319,1.3164,1.3086,1.3059,1.3014,1.2953,1.2929,1.2869,1.2812,1.2765,1.2736,1.2687,1.2659,1.2639,1.2653,1.266,1.2666,1.2666,1.2648,1.2653,1.2596,1.2596,1.2596,0,0,1.3369,1.3307,1.3288,1.3205,1.3158,1.312,1.3067,1.3029,1.3,1.2923,1.2879,1.2834,1.2765,1.2729,1.2711,1.2693,1.2677,1.2668,1.2674,1.267,1.265,1.2655,1.266,1.2598,1.2597,1.2597,0,0,1.3404,1.3354,1.3331,1.3284,1.3213,1.3161,1.3156,1.3072,1.3039,1.2994,1.2936,1.29,1.282,1.2774,1.274,1.2759,1.2716,1.2745,1.278,1.2764,1.2768,1.2772,1.2779,1.2782,1.2745,1.2745,1.2745,0,1.345,1.3391,1.3323,1.3289,1.3255,1.3184,1.316,1.3118,1.3034,1.3012,1.2993,1.2892,1.284,1.2793,1.2798,1.2773,1.2764,1.2755,1.2773,1.2776,1.2779,1.2784,1.2787,1.2749,1.2749,1.2749,1.2748,0,1.3452,1.3412,1.3402,1.3324,1.3288,1.3259,1.3186,1.3158,1.3117,1.3067,1.3023,1.2958,1.2896,1.2882,1.284,1.2829,1.282,1.2788,1.2755,1.2789,1.2793,1.2795,1.2755,1.2754,1.2753,1.2752,0,0,1.3536,1.3422,1.3419,1.3383,1.33,1.3267,1.3235,1.3175,1.3153,1.3098,1.3069,1.3004,1.2974,1.2936,1.2888,1.2874,1.2894,1.2844,1.2841,1.2855,1.2877,1.2902,1.2905,1.2865,1.2865,1.2865,1.2883,0,1.3559,1.3498,1.3437,1.3397,1.336,1.3293,1.3265,1.3211,1.3164,1.3125,1.3072,1.3028,1.2992,1.2968,1.2951,1.2895,1.2897,1.2893,1.2837,1.2836,1.2856,1.2907,1.2933,1.2953,1.2884,1.2884,1.2885,0,1.3577,1.3527,1.3484,1.3405,1.3387,1.3363,1.3304,1.3267,1.3204,1.3171,1.3129,1.3079,1.3041,1.3013,1.296,1.2959,1.2932,1.2901,1.29,1.2892,1.2862,1.2901,1.2957,1.2961,1.2886,1.2886,1.2886,0,1.3643,1.3564,1.3529,1.35,1.3407,1.3392,1.3352,1.3288,1.3257,1.3204,1.3183,1.3127,1.3096,1.3054,1.299,1.2975,1.2944,1.291,1.2915,1.2917,1.2911,1.2913,1.2965,1.2895,1.2895,1.2895,1.2895,0,1.3675,1.3652,1.3557,1.3536,1.3508,1.3437,1.3411,1.3365,1.3309,1.3277,1.3216,1.3187,1.3104,1.3066,1.3015,1.2979,1.2966,1.2938,1.2925,1.2943,1.2947,1.2925,1.2922,1.2895,1.2895,1.2895,1.2895,0,1.3744,1.368,1.3637,1.3553,1.3531,1.3514,1.3442,1.3418,1.3368,1.3328,1.3315,1.3236,1.3187,1.312,1.305,1.3016,1.2987,1.2966,1.3009,1.3001,1.301,1.301,1.3049,1.3051,1.2981,1.2982,1.2982,0,1.3769,1.3749,1.3664,1.3638,1.3601,1.3561,1.3528,1.3458,1.3427,1.3354,1.3339,1.3286,1.324,1.3165,1.3101,1.3047,1.3025,1.3042,1.3016,1.3036,1.3025,1.3027,1.3025,1.3049,1.305,1.3051,1.3051,0,1.3819,1.3789,1.3745,1.369,1.3654,1.3607,1.3557,1.354,1.3459,1.3427,1.3377,1.3341,1.327,1.3218,1.3156,1.3114,1.3069,1.306,1.3058,1.3077,1.3103,1.3089,1.3026,1.3059,1.3059,1.3058,1.3058,1.3057,1.3866,1.3846,1.3783,1.3736,1.3692,1.3648,1.3621,1.3569,1.3526,1.3464,1.3425,1.3377,1.3315,1.3227,1.3187,1.3148,1.313,1.3128,1.3127,1.3128,1.3134,1.3109,1.3137,1.3136,1.3136,1.3136,1.3135,0,1.3913,1.387,1.3828,1.3761,1.3725,1.3687,1.363,1.3602,1.3561,1.3507,1.3463,1.3406,1.3355,1.3288,1.3232,1.3214,1.3192,1.3202,1.3202,1.3194,1.3153,1.316,1.3221,1.3221,1.3221,1.3221,1.3221,1.3221,1.3933,1.3898,1.386,1.3802,1.3759,1.3712,1.3683,1.3641,1.3598,1.3538,1.3496,1.3453,1.3393,1.3333,1.3285,1.3266,1.3249,1.3265,1.324,1.3204,1.3196,1.3189,1.3195,1.3262,1.3262,1.3284,1.3284,1.3284]},{"header":{"parameterUnit":"m.s-1","parameterCategory":1,"la1":30.2991,"la2":30.254,"lo1":-89.0895,"lo2":-89.0444,"dy":0.0017,"dx":0.0017,"nx":28,"ny":28,"refTime":"2025-11-25T03:00:00:Z","depth":0,"parameterNumber":3,"parameterNumberName":"V-component_of_WINDS"},"data":[0,0,0,0,0,0,0,0,0,0,0,0,0,0,0,0,0,0,0,0,0,0,0,0,0,0,0,0,0,0,0,0,0,0,0,0,0,0,0,0,0,0,0,0,0,0,0,0,0,0,0,0,0,0,0,0,0,0,4.9782,4.9785,0,5.0075,5.0078,5.0081,5.016,5.0158,5.0157,5.0155,5.0455,5.0465,5.0474,0,0,0,0,0,0,0,0,0,0,0,0,0,4.9293,4.9301,4.9782,4.9785,4.9789,5.0074,5.0078,5.0082,5.0161,5.0158,5.0156,5.0154,5.0452,5.0464,5.0475,0,0,0,0,0,0,0,0,0,0,0,0,0,4.9537,4.9304,4.9781,4.9863,4.9873,5.0073,5.0078,5.0083,5.0161,5.0158,5.0156,5.0153,5.0449,5.0462,5.0477,5.0617,0,0,5.0521,5.0527,0,0,0,0,0,0,0,0,4.9523,4.9555,4.9847,4.9857,4.9869,5.0078,5.0016,5.0262,5.0162,5.0052,5.0155,5.0152,5.0332,5.0356,5.0416,5.0631,5.0644,5.0522,5.0531,5.0537,5.0541,0,0,0,0,0,0,0,4.9506,4.9543,4.9898,4.9851,4.9865,4.9885,4.9917,5.0063,5.0203,5.0061,5.0067,5.0101,5.0338,5.0402,5.0424,5.0649,5.0522,5.0534,5.0543,5.0549,5.0996,5.0999,0,0,0,0,0,0,4.9475,4.9528,4.9888,4.9906,4.9686,4.9896,4.9932,5.0014,5.0201,5.0227,5.0103,5.0103,5.0379,5.0407,5.0435,5.0614,5.0537,5.055,5.0559,5.0993,5.0997,5.1,0,0,0,0,0,0,4.9464,4.9507,4.9877,4.9719,4.9768,4.9907,4.9999,5.0021,5.0086,5.0233,5.0258,5.0143,5.0378,5.0415,5.0572,5.0626,5.0557,5.057,5.0989,5.0994,5.0999,5.0972,0,0,0,0,0,0,4.945,4.9502,4.9556,4.972,4.9776,5.0008,5.0002,5.0028,5.011,5.0114,5.0278,5.0302,5.0379,5.055,5.0586,5.0644,5.0581,5.0985,5.0991,5.0997,5.0969,5.0975,5.0981,0,0,0,0,0,4.9432,4.9537,4.9559,4.9602,4.9847,5.0011,5.0043,5.0129,5.0114,5.0171,5.0265,5.0297,5.0613,5.0565,5.0607,5.067,5.0982,5.099,5.0997,5.0966,5.0974,5.0981,0,0,0,0,0,0,4.9376,4.956,4.9586,4.9747,4.9863,5.0024,5.0098,5.0134,5.0257,5.0255,5.0357,5.0393,5.0544,5.0623,5.0566,5.0817,5.0798,5.0814,5.076,5.0769,5.0775,5.0754,5.0593,0,0,0,0,0,4.9382,4.9499,4.9654,4.9781,4.9837,4.9957,5.0032,5.0088,5.0212,5.0262,5.0368,5.0488,5.0615,5.0696,5.0821,5.098,5.1018,5.1044,5.1049,5.1054,5.1067,5.116,5.1174,5.1024,5.1024,5.1024,0,0,4.9396,4.9511,4.9579,4.9772,4.9869,4.9989,4.9998,5.0124,5.0215,5.0281,5.0437,5.0519,5.0659,5.0819,5.0894,5.0889,5.1117,5.1063,5.1065,5.1077,5.1169,5.1183,5.1195,5.1029,5.1028,5.1028,0,0,4.9484,4.9582,4.9699,4.9796,4.9942,5.0021,5.0049,5.0206,5.0263,5.0421,5.0474,5.0583,5.0798,5.0897,5.0975,5.1102,5.1136,5.1139,5.1172,5.1261,5.1273,5.1284,5.1331,5.1347,5.1151,5.1151,5.1151,0,4.9483,4.9666,4.9755,4.988,4.9964,5.0029,5.015,5.024,5.0419,5.0476,5.0467,5.074,5.0839,5.1024,5.1055,5.1115,5.1152,5.1122,5.1264,5.1276,5.1287,5.1334,5.1351,5.1151,5.1151,5.1151,5.1151,0,4.9659,4.9786,4.9863,5.0035,5.0128,5.025,5.0358,5.0441,5.0489,5.057,5.073,5.0851,5.1003,5.105,5.1098,5.1243,5.1235,5.1243,5.1227,5.13,5.1345,5.1363,5.115,5.1151,5.1151,5.1151,0,0,4.972,4.9941,4.9968,5.0048,5.0214,5.0314,5.0439,5.0587,5.0658,5.0779,5.0888,5.107,5.1079,5.1168,5.1228,5.1305,5.1401,5.1305,5.131,5.1321,5.157,5.1565,5.1584,5.1424,5.1428,5.1431,5.1559,0,4.9831,5.0058,5.0142,5.0328,5.0447,5.0511,5.062,5.0735,5.0813,5.0926,5.1013,5.1141,5.1143,5.1197,5.1277,5.1372,5.1453,5.1364,5.1528,5.1533,5.1493,5.1607,5.1601,5.1717,5.1577,5.1581,5.1583,0,4.999,5.0114,5.0312,5.0466,5.0519,5.0616,5.076,5.0866,5.0998,5.105,5.1149,5.1204,5.1339,5.1313,5.1501,5.1439,5.1511,5.1568,5.1575,5.1596,5.1564,5.1633,5.1756,5.1774,5.1611,5.1609,5.1607,0,5.0018,5.0234,5.0382,5.0447,5.063,5.0697,5.0776,5.0905,5.0989,5.1115,5.1171,5.131,5.1386,5.1493,5.1585,5.1557,5.1766,5.1746,5.1815,5.1812,5.1858,5.1854,5.1996,5.1899,5.1899,5.1899,5.1898,0,5.0134,5.0253,5.0397,5.0487,5.0624,5.0719,5.0851,5.0935,5.1049,5.1158,5.1221,5.1322,5.1436,5.1552,5.1624,5.1771,5.1804,5.1851,5.1869,5.1847,5.1841,5.1897,5.1893,5.1904,5.1902,5.1902,5.1901,0,5.0188,5.0289,5.0454,5.0613,5.0656,5.075,5.0887,5.0978,5.1059,5.1196,5.1234,5.1362,5.1502,5.1604,5.1784,5.1833,5.1991,5.2007,5.1946,5.1956,5.2019,5.2013,5.2205,5.2236,5.2115,5.2116,5.2117,0,5.0256,5.035,5.052,5.0597,5.0677,5.08,5.0887,5.0985,5.1073,5.1231,5.1303,5.1447,5.1568,5.1789,5.1899,5.2038,5.206,5.2118,5.2082,5.2057,5.2065,5.2059,5.207,5.2123,5.2124,5.2125,5.2125,0,5.0368,5.0414,5.0536,5.0677,5.0779,5.0894,5.101,5.107,5.1189,5.1285,5.1429,5.1522,5.1707,5.1851,5.2001,5.2083,5.2125,5.2136,5.2159,5.2139,5.2101,5.2125,5.1963,5.2131,5.2131,5.213,5.213,5.213,5.0434,5.0521,5.0655,5.079,5.0888,5.0995,5.1089,5.1183,5.1305,5.1463,5.1513,5.1663,5.1794,5.2,5.2084,5.2204,5.2202,5.2235,5.2244,5.2252,5.2252,5.2079,5.2231,5.2231,5.2231,5.2231,5.2231,0,5.0551,5.0641,5.0764,5.0925,5.1032,5.1061,5.1191,5.1279,5.141,5.1529,5.1647,5.1814,5.1953,5.2074,5.2219,5.2292,5.2315,5.2327,5.2324,5.2343,5.2244,5.2211,5.2306,5.2306,5.2306,5.2306,5.2306,5.2306,5.0625,5.0775,5.0836,5.1036,5.1125,5.1272,5.1345,5.1445,5.1541,5.1724,5.1841,5.1918,5.2039,5.2193,5.2323,5.2355,5.2407,5.2415,5.2452,5.2358,5.2349,5.2341,5.231,5.2425,5.2425,5.2541,5.2542,5.2543]}]]